Location: Unspecified
(0.0000°N, 0.0000°E)
Time: 23:56:08
(UTC+00:00)

deb Explorer IX - Pass Details

Date: 22 December 2018
Orbit: 538 x 1115 km, 38.8° (Epoch: 17 January)

Event Time Altitude Azimuth Distance (km) Brightness Sun altitude
Rises 00:40:45 0° 293° (WNW) 2,838 - -64.4°
Reaches altitude 10° 00:43:04 10° 284° (WNW) 2,005 - -64.2°
Maximum altitude 00:47:18 34° 218° (SW) 1,132 - -63.7°
Drops below altitude 10° 00:52:11 10° 154° (SSE) 2,329 - -63.2°
Sets 00:55:05 0° 145° (SE) 3,371 - -62.8°
